Weather History for Ozark, AL

Change the Weather History Date:

Monday, March 11, 2013

  Actual Average Record
Temperature  
Mean Temperature 60 °F -  
Max Temperature 69 °F 66 °F 82 °F (2006)
Min Temperature 49 °F 45 °F 26 °F (1998)
Degree Days  
Heating Degree Days 6    
Growing Degree Days 10 (Base 50)    
Moisture  
Dew Point 55 °F    
Average Humidity 90    
Maximum Humidity 100    
Minimum Humidity 64    
Precipitation  
Precipitation 1.27 in - - ()
Sea Level Pressure  
Sea Level Pressure 29.87 in    
Wind  
Wind Speed 8 mph (NW)    
Max Wind Speed 18 mph    
Max Gust Speed 26 mph    
Visibility 6 miles    
Events Rain    
Averages and records for this station are not official NWS values.
T = Trace of Precipitation, MM = Missing Value Source: NWS Daily Summary

Daily Weather History Graph

Daily Weather History Graph

Search for Another Location

Airport:

Trip Planner

Search our weather history database for the weather conditions in past years. The results will help you decide how hot, cold, wet, or windy it might be!

Date:

Astronomy

Mar. 11, 2013 Rise Set
Actual Time 6:57 AM CDT 6:48 PM CDT
Civil Twilight 6:33 AM CDT 7:12 PM CDT
Nautical Twilight 6:05 AM CDT 7:40 PM CDT
Astronomical Twilight 5:37 AM CDT 8:08 PM CDT
Moon 6:32 AM CDT (3/11) 6:56 PM CDT (3/11)
Length of Visible Light 12h 39m
Length of Day
11h 50m
Waning Crescent, 0% of the Moon is Illuminated
Mar 11
Waning Crescent
Mar 11
New
Mar 19
First Quarter
Mar 27
Full
Apr 2
Last Quarter

Hourly Weather History & Observations

Time (CDT) Temp. Dew Point Humidity Pressure Visibility Wind Dir Wind Speed Gust Speed Precip Events Conditions
12:58 AM 56.3 °F 49.6 °F 78% 30.03 in 10.0 mi SE 4.6 mph - N/A   Clear
1:58 AM 55.6 °F 50.4 °F 83% 30.01 in 10.0 mi SE 8.1 mph - N/A   Clear
2:58 AM 56.3 °F 50.9 °F 82% 29.98 in 10.0 mi ESE 8.1 mph - N/A   Clear
3:58 AM 55.4 °F 50.9 °F 85% 29.96 in 10.0 mi SE 3.5 mph - N/A   Clear
4:58 AM 55.0 °F 50.7 °F 85% 29.98 in 10.0 mi ESE 3.5 mph - N/A   Mostly Cloudy
5:58 AM 55.8 °F 51.3 °F 85% 29.99 in 10.0 mi SE 4.6 mph - N/A   Overcast
6:58 AM 54.9 °F 50.5 °F 85% 30.00 in 10.0 mi East 4.6 mph - N/A   Mostly Cloudy
7:58 AM 56.7 °F 51.3 °F 82% 29.98 in 8.0 mi ESE 9.2 mph - N/A   Mostly Cloudy
8:58 AM 60.6 °F 53.1 °F 76% 29.98 in 9.0 mi SE 11.5 mph - N/A   Mostly Cloudy
9:58 AM 63.7 °F 55.0 °F 73% 29.96 in 8.0 mi SSE 12.7 mph 21.9 mph N/A   Partly Cloudy
10:58 AM 67.3 °F 57.0 °F 70% 29.93 in 10.0 mi SSE 15.0 mph 21.9 mph N/A   Scattered Clouds
11:58 AM 69.3 °F 57.6 °F 66% 29.90 in 10.0 mi SSE 18.4 mph 26.5 mph N/A   Mostly Cloudy
12:43 PM 69.8 °F 57.2 °F 64% 29.87 in 10.0 mi South 9.2 mph 19.6 mph N/A   Mostly Cloudy
12:58 PM 68.7 °F 57.9 °F 68% 29.90 in 10.0 mi South 11.5 mph - N/A   Overcast
1:13 PM 69.8 °F 59.0 °F 68% 29.89 in 10.0 mi SSE 10.4 mph 19.6 mph N/A   Overcast
1:58 PM 69.8 °F 58.6 °F 68% 29.83 in 10.0 mi SSE 10.4 mph - N/A   Overcast
2:19 PM 69.8 °F 59.0 °F 68% 29.81 in 9.0 mi SSE 13.8 mph 19.6 mph N/A Rain Light Rain
2:24 PM 69.8 °F 59.0 °F 68% 29.80 in 9.0 mi SSE 11.5 mph 19.6 mph N/A Rain Light Rain
2:52 PM 68.0 °F 60.8 °F 78% 29.81 in 6.0 mi South 9.2 mph - N/A Rain Light Rain
2:58 PM 67.1 °F 60.1 °F 78% 29.82 in 3.0 mi SW 8.1 mph - 0.04 in Rain Heavy Rain
3:03 PM 66.2 °F 60.8 °F 83% 29.82 in 2.0 mi West 18.4 mph 23.0 mph N/A Rain Heavy Rain
3:08 PM 64.4 °F 60.8 °F 88% 29.82 in 1.0 mi WNW 11.5 mph 23.0 mph N/A Rain Heavy Rain
3:13 PM 62.6 °F 60.8 °F 94% 29.83 in 0.8 mi WNW 11.5 mph 23.0 mph N/A Rain Heavy Rain
3:23 PM 60.8 °F 59.0 °F 94% 29.83 in 1.2 mi WNW 12.7 mph 19.6 mph N/A Rain Heavy Rain
3:28 PM 60.8 °F 59.0 °F 94% 29.84 in 1.2 mi WNW 13.8 mph - N/A Rain Heavy Rain
3:38 PM 59.0 °F 57.2 °F 94% 29.85 in 1.5 mi WNW 13.8 mph - N/A Rain Heavy Rain
3:43 PM 59.0 °F 57.2 °F 94% 29.84 in 2.0 mi NW 12.7 mph - N/A Rain Heavy Rain
3:48 PM 59.0 °F 57.2 °F 94% 29.83 in 2.0 mi NW 12.7 mph - N/A Rain Heavy Rain
3:58 PM 57.9 °F 56.5 °F 95% 29.85 in 2.5 mi NNW 6.9 mph - 0.71 in Rain Heavy Rain
4:03 PM 57.2 °F 57.2 °F 100% 29.84 in 3.0 mi NW 9.2 mph - N/A Rain Heavy Rain
4:08 PM 57.2 °F 55.4 °F 94% 29.84 in 2.5 mi NW 9.2 mph - N/A Rain Heavy Rain
4:13 PM 57.2 °F 55.4 °F 94% 29.84 in 2.5 mi NNW 6.9 mph - N/A Rain Heavy Rain
4:18 PM 57.2 °F 55.4 °F 94% 29.83 in 3.0 mi NNW 9.2 mph - N/A Rain Rain
4:28 PM 57.2 °F 55.4 °F 94% 29.83 in 3.0 mi NNW 5.8 mph - N/A Rain Heavy Rain
4:33 PM 57.2 °F 55.4 °F 94% 29.84 in 2.5 mi NNW 3.5 mph - N/A Rain Heavy Rain
4:38 PM 57.2 °F 55.4 °F 94% 29.84 in 1.8 mi WNW 8.1 mph - N/A Rain Heavy Rain
4:48 PM 57.2 °F 55.4 °F 94% 29.83 in 2.0 mi NNW 6.9 mph - N/A Rain Heavy Rain
4:53 PM 57.2 °F 55.4 °F 94% 29.84 in 2.0 mi NW 8.1 mph - N/A Rain Heavy Rain
4:58 PM 56.8 °F 55.8 °F 96% 29.85 in 2.5 mi NNW 5.8 mph - 0.33 in Rain Heavy Rain
5:03 PM 57.2 °F 55.4 °F 94% 29.84 in 3.0 mi NNW 3.5 mph - N/A Rain Rain
5:28 PM 57.2 °F 55.4 °F 94% 29.83 in 10.0 mi North 5.8 mph - N/A Rain Light Rain
5:38 PM 57.2 °F 55.4 °F 94% 29.83 in 10.0 mi NE 5.8 mph - N/A Rain Light Rain
5:43 PM 57.2 °F 55.4 °F 94% 29.83 in 6.0 mi ENE 5.8 mph - N/A Rain Light Rain
5:48 PM 57.2 °F 55.4 °F 94% 29.82 in 2.5 mi ENE 6.9 mph - N/A Rain Rain
5:58 PM 56.7 °F 55.6 °F 96% 29.82 in 3.0 mi NE 6.9 mph - 0.09 in Rain Light Rain
6:13 PM 57.2 °F 55.4 °F 94% 29.83 in 5.0 mi North 3.5 mph - N/A Rain Light Rain
6:18 PM 57.2 °F 55.4 °F 94% 29.82 in 3.0 mi North 4.6 mph - N/A Rain Heavy Rain
6:33 PM 57.2 °F 55.4 °F 94% 29.83 in 6.0 mi WNW 6.9 mph - N/A Rain Light Rain
6:43 PM 57.2 °F 55.4 °F 94% 29.83 in 5.0 mi NW 8.1 mph - N/A Rain Light Rain
6:58 PM 56.5 °F 55.6 °F 97% 29.85 in 10.0 mi NW 5.8 mph - 0.08 in Rain Light Rain
7:18 PM 55.4 °F 55.4 °F 100% 29.84 in 5.0 mi WNW 5.8 mph - N/A Rain Light Rain
7:28 PM 55.4 °F 55.4 °F 100% 29.84 in 9.0 mi NW 4.6 mph - N/A Rain Light Rain
7:42 PM 55.4 °F 55.4 °F 100% 29.84 in 10.0 mi NW 4.6 mph - N/A   Overcast
7:49 PM 55.4 °F 55.4 °F 100% 29.84 in 10.0 mi NNW 4.6 mph - N/A   Light Drizzle
7:58 PM 56.1 °F 55.2 °F 97% 29.85 in 10.0 mi NW 5.8 mph - 0.01 in   Light Drizzle
8:03 PM 55.4 °F 55.4 °F 100% 29.85 in 9.0 mi WNW 5.8 mph - N/A   Overcast
8:05 PM 55.4 °F 55.4 °F 100% 29.85 in 9.0 mi WNW 8.1 mph - N/A Rain Light Rain
8:35 PM 55.4 °F 55.4 °F 100% 29.86 in 9.0 mi NW 10.4 mph - N/A   Overcast
8:45 PM 55.4 °F 53.6 °F 94% 29.86 in 10.0 mi WNW 11.5 mph - N/A   Overcast
8:55 PM 55.4 °F 53.6 °F 94% 29.86 in 7.0 mi WNW 11.5 mph - N/A Rain Light Rain
8:58 PM 55.4 °F 53.6 °F 94% 29.87 in 7.0 mi WNW 11.5 mph - 0.01 in Rain Light Rain
9:23 PM 51.8 °F 51.8 °F 100% 29.87 in 3.0 mi NW 10.4 mph - N/A   Light Drizzle
9:25 PM 51.8 °F 51.8 °F 100% 29.88 in 3.0 mi WNW 10.4 mph - N/A   Overcast
9:40 PM 51.8 °F 50.0 °F 94% 29.87 in 8.0 mi NNW 12.7 mph 21.9 mph N/A   Overcast
9:58 PM 51.8 °F 50.0 °F 94% 29.90 in 8.0 mi NW 8.1 mph 20.7 mph 0.00 in   Overcast
10:18 PM 50.0 °F 48.2 °F 94% 29.89 in 10.0 mi NW 10.4 mph 19.6 mph N/A   Overcast
10:23 PM 50.0 °F 48.2 °F 94% 29.89 in 10.0 mi NW 9.2 mph - N/A   Overcast
10:33 PM 50.0 °F 48.2 °F 94% 29.90 in 10.0 mi NW 6.9 mph - N/A   Overcast
10:43 PM 50.0 °F 48.2 °F 94% 29.90 in 10.0 mi NW 10.4 mph - N/A   Overcast
10:53 PM 50.0 °F 48.2 °F 94% 29.90 in 10.0 mi WNW 8.1 mph - N/A   Overcast
10:58 PM 50.0 °F 47.7 °F 92% 29.91 in 10.0 mi NW 9.2 mph - N/A   Overcast
11:58 PM 49.1 °F 46.0 °F 89% 29.92 in 10.0 mi NW 9.2 mph 17.3 mph N/A   Overcast